| time (UTC) | temp C | wind direction | speed KPH | gust KPH | rain 1hr cm | rain 24hr cm | rain mn cm | humidity % | barometer mb |
| 20260509022445 | 10 | 194 | 0.0 | 0.0 | 0.00 | 0.00 | 0.00 | 38 | 1011.0 |
| 20260509021943 | 10 | 198 | 0.0 | 0.0 | 0.00 | 0.00 | 0.00 | 42 | 1011.0 |
| 20260509021440 | 11 | 196 | 0.0 | 0.0 | 0.00 | 0.00 | 0.00 | 38 | 1010.8 |
| 20260509020937 | 11 | 196 | 0.0 | 0.0 | 0.00 | 0.00 | 0.00 | 38 | 1011.0 |
| 20260509020435 | 11 | 196 | 0.0 | 0.0 | 0.00 | 0.00 | 0.00 | 36 | 1011.0 |
| 20260509015932 | 11 | 196 | 0.0 | 0.0 | 0.00 | 0.00 | 0.00 | 36 | 1010.8 |
| 20260509015431 | 11 | 196 | 0.0 | 0.0 | 0.00 | 0.00 | 0.00 | 38 | 1010.8 |
| 20260509014927 | 11 | 199 | 0.0 | 0.0 | 0.00 | 0.00 | 0.00 | 35 | 1010.8 |
| 20260509014424 | 12 | 200 | 0.0 | 0.0 | 0.00 | 0.00 | 0.00 | 36 | 1010.7 |
| 20260509013920 | 12 | 203 | 0.0 | 0.0 | 0.00 | 0.00 | 0.00 | 34 | 1010.8 |
| 20260509013417 | 13 | 203 | 0.0 | 0.0 | 0.00 | 0.00 | 0.00 | 32 | 1010.8 |
| 20260509012913 | 13 | 213 | 1.6 | 3.2 | 0.00 | 0.00 | 0.00 | 29 | 1010.6 |
| 20260509012410 | 13 | 205 | 0.0 | 0.0 | 0.00 | 0.00 | 0.00 | 30 | 1010.6 |
| 20260509011907 | 13 | 204 | 0.0 | 0.0 | 0.00 | 0.00 | 0.00 | 29 | 1010.7 |
| 20260509011404 | 14 | 220 | 0.0 | 0.0 | 0.00 | 0.00 | 0.00 | 29 | 1010.5 |
| 20260509010902 | 14 | 211 | 1.6 | 3.2 | 0.00 | 0.00 | 0.00 | 29 | 1010.5 |
| 20260509010359 | 14 | 206 | 0.0 | 0.0 | 0.00 | 0.00 | 0.00 | 30 | 1010.3 |
| 20260509005856 | 15 | 267 | 6.4 | 8.0 | 0.00 | 0.00 | 0.00 | 29 | 1010.3 |
| 20260509005355 | 15 | 215 | 8.0 | 11.3 | 0.00 | 0.00 | 0.00 | 29 | 1010.4 |
| 20260509004855 | 15 | 281 | 3.2 | 4.8 | 0.00 | 0.00 | 0.00 | 30 | 1010.2 |
| 20260509004351 | 15 | 243 | 3.2 | 4.8 | 0.00 | 0.00 | 0.00 | 29 | 1010.4 |
| 20260509003849 | 15 | 276 | 4.8 | 8.0 | 0.00 | 0.00 | 0.00 | 29 | 1010.1 |
| 20260509003346 | 15 | 279 | 3.2 | 4.8 | 0.00 | 0.00 | 0.00 | 29 | 1010.2 |
| 20260509002843 | 15 | 223 | 3.2 | 4.8 | 0.00 | 0.00 | 0.00 | 29 | 1010.1 |
| 20260509002341 | 15 | 259 | 6.4 | 8.0 | 0.00 | 0.00 | 0.00 | 29 | 1010.0 |
| 20260509001839 | 15 | 213 | 0.0 | 0.0 | 0.00 | 0.00 | 0.00 | 30 | 1009.9 |
| 20260509001334 | 16 | 206 | 0.0 | 0.0 | 0.00 | 0.00 | 0.00 | 30 | 1010.1 |
| 20260509000832 | 16 | 200 | 0.0 | 0.0 | 0.00 | 0.00 | 0.00 | 29 | 1010.0 |
| 20260509000330 | 16 | 210 | 0.0 | 3.2 | 0.00 | 0.00 | 0.00 | 28 | 1010.0 |
| 20260508235826 | 17 | 220 | 1.6 | 3.2 | 0.00 | 0.00 | 0.00 | 28 | 1009.9 |
| 20260508235323 | 17 | 248 | 3.2 | 4.8 | 0.00 | 0.00 | 0.00 | 27 | 1010.0 |
| 20260508234820 | 17 | 351 | 3.2 | 4.8 | 0.00 | 0.00 | 0.00 | 27 | 1009.9 |
| 20260508234316 | 17 | 263 | 11.3 | 14.5 | 0.00 | 0.00 | 0.00 | 26 | 1010.0 |
| 20260508233815 | 17 | 233 | 6.4 | 8.0 | 0.00 | 0.00 | 0.00 | 26 | 1009.8 |
| 20260508233314 | 17 | 201 | 3.2 | 4.8 | 0.00 | 0.00 | 0.00 | 27 | 1009.9 |
| 20260508232810 | 17 | 336 | 8.0 | 14.5 | 0.00 | 0.00 | 0.00 | 27 | 1009.7 |
| 20260508232307 | 17 | 237 | 11.3 | 14.5 | 0.00 | 0.00 | 0.00 | 26 | 1009.7 |
| 20260508231805 | 17 | 316 | 4.8 | 8.0 | 0.00 | 0.00 | 0.00 | 26 | 1009.7 |
| 20260508231301 | 17 | 268 | 3.2 | 8.0 | 0.00 | 0.00 | 0.00 | 26 | 1010.0 |
| 20260508230758 | 17 | 209 | 1.6 | 3.2 | 0.00 | 0.00 | 0.00 | 27 | 1009.9 |
| 20260508230254 | 17 | 262 | 9.7 | 11.3 | 0.00 | 0.00 | 0.00 | 26 | 1009.9 |
| 20260508225752 | 17 | 347 | 12.9 | 22.5 | 0.00 | 0.00 | 0.00 | 26 | 1009.9 |
| 20260508225248 | 17 | 196 | 3.2 | 4.8 | 0.00 | 0.00 | 0.00 | 26 | 1009.9 |
| 20260508224746 | 17 | 223 | 6.4 | 8.0 | 0.00 | 0.00 | 0.00 | 26 | 1010.1 |
| 20260508224243 | 18 | 313 | 11.3 | 16.1 | 0.00 | 0.00 | 0.00 | 25 | 1010.1 |
| 20260508223741 | 18 | 194 | 4.8 | 4.8 | 0.00 | 0.00 | 0.00 | 28 | 1010.1 |
| 20260508223238 | 18 | 282 | 6.4 | 8.0 | 0.00 | 0.00 | 0.00 | 27 | 1010.2 |
| 20260508222735 | 17 | 246 | 1.6 | 3.2 | 0.00 | 0.00 | 0.00 | 28 | 1010.3 |
| 20260508222233 | 17 | 281 | 20.9 | 24.1 | 0.00 | 0.00 | 0.00 | 27 | 1010.1 |
| 20260508221729 | 18 | 218 | 4.8 | 4.8 | 0.00 | 0.00 | 0.00 | 27 | 1010.2 |
| 20260508221225 | 18 | 180 | 0.0 | 3.2 | 0.00 | 0.00 | 0.00 | 27 | 1010.1 |
| 20260508220721 | 17 | 211 | 1.6 | 3.2 | 0.00 | 0.00 | 0.00 | 28 | 1010.2 |
| 20260508220218 | 17 | 234 | 3.2 | 4.8 | 0.00 | 0.00 | 0.00 | 27 | 1010.3 |
| 20260508215714 | 17 | 235 | 4.8 | 4.8 | 0.00 | 0.00 | 0.00 | 28 | 1010.7 |
| 20260508215211 | 17 | 223 | 6.4 | 8.0 | 0.00 | 0.00 | 0.00 | 28 | 1010.4 |
| 20260508214708 | 17 | 288 | 6.4 | 8.0 | 0.00 | 0.00 | 0.00 | 27 | 1010.3 |
| 20260508214206 | 17 | 183 | 6.4 | 8.0 | 0.00 | 0.00 | 0.00 | 27 | 1010.5 |
| 20260508213702 | 17 | 192 | 3.2 | 8.0 | 0.00 | 0.00 | 0.00 | 28 | 1010.5 |
| 20260508213158 | 17 | 243 | 12.9 | 16.1 | 0.00 | 0.00 | 0.00 | 28 | 1010.4 |
| 20260508212655 | 17 | 276 | 14.5 | 19.3 | 0.00 | 0.00 | 0.00 | 27 | 1010.5 |
| 20260508212151 | 17 | 258 | 14.5 | 19.3 | 0.00 | 0.00 | 0.00 | 27 | 1010.5 |
| 20260508211651 | 17 | 221 | 3.2 | 4.8 | 0.00 | 0.00 | 0.00 | 27 | 1010.6 |
| 20260508211148 | 16 | 287 | 12.9 | 16.1 | 0.00 | 0.00 | 0.00 | 28 | 1010.6 |
| 20260508210645 | 17 | 246 | 6.4 | 8.0 | 0.00 | 0.00 | 0.00 | 28 | 1010.7 |
| 20260508210143 | 17 | 314 | 9.7 | 11.3 | 0.00 | 0.00 | 0.00 | 27 | 1011.0 |
| 20260508205639 | 17 | 241 | 9.7 | 14.5 | 0.00 | 0.00 | 0.00 | 26 | 1010.5 |
| 20260508205136 | 17 | 198 | 6.4 | 8.0 | 0.00 | 0.00 | 0.00 | 27 | 1011.1 |
| 20260508204632 | 17 | 177 | 6.4 | 8.0 | 0.00 | 0.00 | 0.00 | 27 | 1011.2 |
| 20260508204128 | 17 | 277 | 27.4 | 35.4 | 0.00 | 0.00 | 0.00 | 26 | 1011.0 |
| 20260508203625 | 16 | 212 | 4.8 | 4.8 | 0.00 | 0.00 | 0.00 | 29 | 1011.0 |
| 20260508203121 | 16 | 283 | 24.1 | 27.4 | 0.00 | 0.00 | 0.00 | 26 | 1011.2 |
| 20260508202617 | 17 | 282 | 19.3 | 22.5 | 0.00 | 0.00 | 0.00 | 27 | 1011.4 |
| 20260508202114 | 17 | 233 | 9.7 | 11.3 | 0.00 | 0.00 | 0.00 | 28 | 1011.3 |
| 20260508201611 | 17 | 176 | 0.0 | 3.2 | 0.00 | 0.00 | 0.00 | 27 | 1011.2 |
| 20260508201108 | 16 | 214 | 3.2 | 3.2 | 0.00 | 0.00 | 0.00 | 29 | 1011.5 |
| 20260508200605 | 16 | 206 | 1.6 | 3.2 | 0.00 | 0.00 | 0.00 | 28 | 1011.6 |
| 20260508200100 | 16 | 311 | 12.9 | 16.1 | 0.00 | 0.00 | 0.00 | 27 | 1011.7 |
| 20260508195557 | 16 | 303 | 11.3 | 16.1 | 0.00 | 0.00 | 0.00 | 28 | 1011.8 |
| 20260508195053 | 16 | 171 | 8.0 | 11.3 | 0.00 | 0.00 | 0.00 | 28 | 1011.9 |
| 20260508194550 | 16 | 206 | 1.6 | 3.2 | 0.00 | 0.00 | 0.00 | 30 | 1011.9 |
| 20260508194048 | 16 | 192 | 3.2 | 4.8 | 0.00 | 0.00 | 0.00 | 30 | 1012.1 |
| 20260508193544 | 16 | 295 | 14.5 | 16.1 | 0.00 | 0.00 | 0.00 | 30 | 1012.2 |
| 20260508193041 | 16 | 218 | 11.3 | 14.5 | 0.00 | 0.00 | 0.00 | 29 | 1012.3 |
| 20260508192538 | 16 | 217 | 19.3 | 30.6 | 0.00 | 0.00 | 0.00 | 29 | 1012.2 |
| 20260508192035 | 16 | 204 | 3.2 | 4.8 | 0.00 | 0.00 | 0.00 | 30 | 1012.4 |
| 20260508191531 | 15 | 193 | 9.7 | 11.3 | 0.00 | 0.00 | 0.00 | 29 | 1012.4 |
| 20260508191028 | 16 | 240 | 16.1 | 19.3 | 0.00 | 0.00 | 0.00 | 28 | 1012.5 |
| 20260508190525 | 16 | 248 | 6.4 | 11.3 | 0.00 | 0.00 | 0.00 | 30 | 1012.5 |
| 20260508190021 | 15 | 202 | 3.2 | 4.8 | 0.00 | 0.00 | 0.00 | 33 | 1012.4 |
| 20260508185519 | 15 | 244 | 4.8 | 4.8 | 0.00 | 0.00 | 0.00 | 30 | 1012.5 |
| 20260508185017 | 16 | 269 | 9.7 | 11.3 | 0.00 | 0.00 | 0.00 | 30 | 1012.7 |
| 20260508184514 | 15 | 251 | 9.7 | 11.3 | 0.00 | 0.00 | 0.00 | 32 | 1012.8 |
| 20260508184010 | 15 | 264 | 8.0 | 8.0 | 0.00 | 0.00 | 0.00 | 31 | 1012.6 |
| 20260508183507 | 15 | 228 | 4.8 | 8.0 | 0.00 | 0.00 | 0.00 | 30 | 1013.0 |
| 20260508183002 | 15 | 249 | 3.2 | 8.0 | 0.00 | 0.00 | 0.00 | 33 | 1013.0 |
| 20260508182500 | 15 | 226 | 14.5 | 16.1 | 0.00 | 0.00 | 0.00 | 32 | 1012.8 |
| 20260508181955 | 15 | 199 | 3.2 | 3.2 | 0.00 | 0.00 | 0.00 | 34 | 1013.1 |
| 20260508181451 | 15 | 222 | 3.2 | 3.2 | 0.00 | 0.00 | 0.00 | 32 | 1013.0 |
| 20260508180949 | 15 | 163 | 6.4 | 11.3 | 0.00 | 0.00 | 0.00 | 31 | 1013.0 |
| 20260508180446 | 15 | 210 | 14.5 | 16.1 | 0.00 | 0.00 | 0.00 | 30 | 1013.2 |
| 20260508175942 | 15 | 263 | 9.7 | 11.3 | 0.00 | 0.00 | 0.00 | 31 | 1013.1 |
| 20260508175438 | 15 | 308 | 12.9 | 19.3 | 0.00 | 0.00 | 0.00 | 29 | 1013.3 |
| 20260508174936 | 15 | 272 | 11.3 | 14.5 | 0.00 | 0.00 | 0.00 | 31 | 1013.3 |
| 20260508174434 | 14 | 296 | 19.3 | 24.1 | 0.00 | 0.00 | 0.00 | 30 | 1013.4 |
| 20260508173930 | 15 | 166 | 6.4 | 8.0 | 0.00 | 0.00 | 0.00 | 31 | 1013.5 |
| 20260508173428 | 14 | 204 | 0.0 | 0.0 | 0.00 | 0.00 | 0.00 | 31 | 1013.7 |
| 20260508172923 | 14 | 273 | 4.8 | 8.0 | 0.00 | 0.00 | 0.00 | 33 | 1013.8 |
| 20260508172421 | 14 | 256 | 14.5 | 19.3 | 0.00 | 0.00 | 0.00 | 31 | 1013.6 |
| 20260508171917 | 14 | 189 | 0.0 | 0.0 | 0.00 | 0.00 | 0.00 | 31 | 1013.8 |
| 20260508171413 | 14 | 206 | 11.3 | 16.1 | 0.00 | 0.00 | 0.00 | 31 | 1013.8 |
| 20260508170910 | 13 | 278 | 16.1 | 16.1 | 0.00 | 0.00 | 0.00 | 29 | 1014.0 |
| 20260508170408 | 13 | 287 | 16.1 | 19.3 | 0.00 | 0.00 | 0.00 | 29 | 1014.0 |
| 20260508165904 | 14 | 239 | 25.7 | 30.6 | 0.00 | 0.00 | 0.00 | 28 | 1013.9 |
| 20260508165402 | 14 | 177 | 0.0 | 3.2 | 0.00 | 0.00 | 0.00 | 31 | 1014.2 |
| 20260508164857 | 13 | 200 | 1.6 | 3.2 | 0.00 | 0.00 | 0.00 | 32 | 1014.1 |
| 20260508164355 | 13 | 198 | 4.8 | 11.3 | 0.00 | 0.00 | 0.00 | 29 | 1014.4 |
| 20260508163852 | 13 | 190 | 6.4 | 14.5 | 0.00 | 0.00 | 0.00 | 30 | 1014.4 |
| 20260508163351 | 14 | 258 | 19.3 | 22.5 | 0.00 | 0.00 | 0.00 | 29 | 1014.4 |
| 20260508162851 | 13 | 203 | 3.2 | 4.8 | 0.00 | 0.00 | 0.00 | 29 | 1014.5 |
| 20260508162349 | 14 | 349 | 6.4 | 8.0 | 0.00 | 0.00 | 0.00 | 31 | 1014.5 |
| 20260508161846 | 14 | 225 | 4.8 | 4.8 | 0.00 | 0.00 | 0.00 | 30 | 1014.5 |
| 20260508161343 | 15 | 225 | 3.2 | 4.8 | 0.00 | 0.00 | 0.00 | 30 | 1014.6 |
| 20260508160840 | 14 | 193 | 9.7 | 14.5 | 0.00 | 0.00 | 0.00 | 34 | 1014.6 |
| 20260508160339 | 13 | 199 | 9.7 | 14.5 | 0.00 | 0.00 | 0.00 | 34 | 1014.5 |
| 20260508155835 | 13 | 216 | 14.5 | 16.1 | 0.00 | 0.00 | 0.00 | 30 | 1014.6 |
| 20260508155332 | 13 | 216 | 4.8 | 4.8 | 0.00 | 0.00 | 0.00 | 31 | 1014.8 |
| 20260508154828 | 13 | 187 | 3.2 | 4.8 | 0.00 | 0.00 | 0.00 | 32 | 1014.6 |
| 20260508154326 | 13 | 200 | 8.0 | 11.3 | 0.00 | 0.00 | 0.00 | 32 | 1014.6 |
| 20260508153822 | 13 | 218 | 4.8 | 4.8 | 0.00 | 0.00 | 0.00 | 31 | 1014.8 |
| 20260508153321 | 13 | 146 | 0.0 | 0.0 | 0.00 | 0.00 | 0.00 | 33 | 1014.5 |
| 20260508152815 | 13 | 302 | 4.8 | 4.8 | 0.00 | 0.00 | 0.00 | 34 | 1014.8 |
| 20260508152312 | 13 | 182 | 1.6 | 3.2 | 0.00 | 0.00 | 0.00 | 35 | 1014.7 |
| 20260508151808 | 12 | 202 | 3.2 | 3.2 | 0.00 | 0.00 | 0.00 | 35 | 1015.0 |
| 20260508151306 | 12 | 237 | 8.0 | 8.0 | 0.00 | 0.00 | 0.00 | 34 | 1014.9 |
| 20260508150802 | 12 | 218 | 6.4 | 8.0 | 0.00 | 0.00 | 0.00 | 32 | 1015.1 |
| 20260508150259 | 12 | 285 | 6.4 | 11.3 | 0.00 | 0.00 | 0.00 | 31 | 1015.2 |
| 20260508145755 | 12 | 175 | 1.6 | 3.2 | 0.00 | 0.00 | 0.00 | 33 | 1015.2 |
| 20260508145251 | 12 | 264 | 11.3 | 14.5 | 0.00 | 0.00 | 0.00 | 37 | 1015.3 |
| 20260508144748 | 12 | 205 | 3.2 | 3.2 | 0.00 | 0.00 | 0.00 | 38 | 1015.1 |
| 20260508144246 | 12 | 202 | 4.8 | 4.8 | 0.00 | 0.00 | 0.00 | 41 | 1015.1 |
| 20260508143743 | 12 | 189 | 4.8 | 8.0 | 0.00 | 0.00 | 0.00 | 42 | 1015.1 |
| 20260508143240 | 12 | 237 | 6.4 | 8.0 | 0.00 | 0.00 | 0.00 | 40 | 1015.2 |
| 20260508142736 | 12 | 196 | 0.0 | 3.2 | 0.00 | 0.00 | 0.00 | 44 | 1015.2 |
| 20260508142233 | 11 | 181 | 1.6 | 3.2 | 0.00 | 0.00 | 0.00 | 44 | 1015.2 |
| 20260508141730 | 11 | 238 | 3.2 | 3.2 | 0.00 | 0.00 | 0.00 | 45 | 1015.5 |
| 20260508141228 | 11 | 185 | 6.4 | 11.3 | 0.00 | 0.00 | 0.00 | 45 | 1015.1 |
| 20260508140725 | 11 | 52 | 4.8 | 4.8 | 0.00 | 0.00 | 0.00 | 42 | 1015.3 |
| 20260508140221 | 11 | 231 | 8.0 | 8.0 | 0.00 | 0.00 | 0.00 | 45 | 1015.6 |
| 20260508135718 | 11 | 268 | 3.2 | 4.8 | 0.00 | 0.00 | 0.00 | 42 | 1015.6 |
| 20260508135213 | 11 | 186 | 4.8 | 8.0 | 0.00 | 0.00 | 0.00 | 47 | 1015.7 |
| 20260508134709 | 11 | 193 | 4.8 | 4.8 | 0.00 | 0.00 | 0.00 | 48 | 1015.7 |
| 20260508134207 | 10 | 206 | 1.6 | 3.2 | 0.00 | 0.00 | 0.00 | 50 | 1015.7 |
| 20260508133703 | 10 | 224 | 1.6 | 3.2 | 0.00 | 0.00 | 0.00 | 50 | 1015.1 |
| 20260508133201 | 11 | 221 | 3.2 | 4.8 | 0.00 | 0.00 | 0.00 | 49 | 1015.6 |
| 20260508132659 | 11 | 164 | 3.2 | 3.2 | 0.00 | 0.00 | 0.00 | 48 | 1015.6 |
| 20260508132155 | 10 | 184 | 3.2 | 4.8 | 0.00 | 0.00 | 0.00 | 52 | 1015.7 |
| 20260508131651 | 10 | 204 | 0.0 | 3.2 | 0.00 | 0.00 | 0.00 | 53 | 1015.8 |
| 20260508131148 | 10 | 207 | 1.6 | 3.2 | 0.00 | 0.00 | 0.00 | 52 | 1015.6 |
| 20260508130644 | 10 | 193 | 1.6 | 3.2 | 0.00 | 0.00 | 0.00 | 51 | 1015.8 |
| 20260508130142 | 10 | 194 | 3.2 | 3.2 | 0.00 | 0.00 | 0.00 | 51 | 1015.5 |
| 20260508125637 | 9 | 189 | 1.6 | 3.2 | 0.00 | 0.00 | 0.00 | 52 | 1015.7 |
| 20260508125134 | 9 | 163 | 1.6 | 3.2 | 0.00 | 0.00 | 0.00 | 55 | 1015.8 |
| 20260508124632 | 8 | 187 | 3.2 | 4.8 | 0.00 | 0.00 | 0.00 | 58 | 1015.6 |
| 20260508124129 | 8 | 208 | 3.2 | 4.8 | 0.00 | 0.00 | 0.00 | 60 | 1015.7 |
| 20260508123627 | 8 | 185 | 3.2 | 4.8 | 0.00 | 0.00 | 0.00 | 60 | 1015.7 |
| 20260508123124 | 8 | 176 | 4.8 | 4.8 | 0.00 | 0.00 | 0.00 | 63 | 1015.7 |
| 20260508122620 | 8 | 183 | 1.6 | 3.2 | 0.00 | 0.00 | 0.00 | 64 | 1015.7 |
| 20260508122118 | 7 | 197 | 0.0 | 0.0 | 0.00 | 0.00 | 0.00 | 67 | 1015.3 |
| 20260508121616 | 7 | 195 | 3.2 | 3.2 | 0.00 | 0.00 | 0.00 | 69 | 1015.5 |
| 20260508121114 | 6 | 199 | 0.0 | 0.0 | 0.00 | 0.00 | 0.00 | 71 | 1015.3 |
| 20260508120611 | 6 | 193 | 0.0 | 0.0 | 0.00 | 0.00 | 0.00 | 72 | 1015.2 |
| 20260508120109 | 5 | 194 | 0.0 | 0.0 | 0.00 | 0.00 | 0.00 | 75 | 1015.1 |
| 20260508115606 | 5 | 197 | 0.0 | 0.0 | 0.00 | 0.00 | 0.00 | 77 | 1015.2 |
| 20260508115103 | 5 | 197 | 0.0 | 0.0 | 0.00 | 0.00 | 0.00 | 79 | 1015.0 |
| 20260508114600 | 3 | 197 | 0.0 | 0.0 | 0.00 | 0.00 | 0.00 | 85 | 1014.9 |
| 20260508114056 | 3 | 199 | 0.0 | 0.0 | 0.00 | 0.00 | 0.00 | 86 | 1014.8 |
| 20260508113553 | 3 | 196 | 0.0 | 0.0 | 0.00 | 0.00 | 0.00 | 88 | 1014.8 |
| 20260508113051 | 3 | 197 | 0.0 | 0.0 | 0.00 | 0.00 | 0.00 | 91 | 1014.9 |
| 20260508112547 | 3 | 197 | 0.0 | 0.0 | 0.00 | 0.00 | 0.00 | 92 | 1014.9 |
| 20260508112044 | 3 | 197 | 0.0 | 0.0 | 0.00 | 0.00 | 0.00 | 93 | 1015.0 |
| 20260508111541 | 2 | 197 | 0.0 | 0.0 | 0.00 | 0.00 | 0.00 | 94 | 1014.8 |
| 20260508111038 | 2 | 197 | 0.0 | 0.0 | 0.00 | 0.00 | 0.00 | 94 | 1014.9 |
| 20260508110536 | 1 | 198 | 0.0 | 0.0 | 0.00 | 0.00 | 0.00 | 94 | 1014.8 |
| 20260508110032 | 1 | 198 | 0.0 | 0.0 | 0.00 | 0.00 | 0.00 | 94 | 1014.9 |
| 20260508105527 | 1 | 198 | 0.0 | 0.0 | 0.00 | 0.00 | 0.00 | 94 | 1015.0 |
| 20260508105025 | 1 | 198 | 0.0 | 0.0 | 0.00 | 0.00 | 0.00 | 94 | 1014.8 |
| 20260508104523 | 1 | 198 | 0.0 | 0.0 | 0.00 | 0.00 | 0.00 | 93 | 1014.8 |
| 20260508104019 | 1 | 198 | 0.0 | 0.0 | 0.00 | 0.00 | 0.00 | 93 | 1014.7 |
| 20260508103516 | 1 | 198 | 0.0 | 0.0 | 0.00 | 0.00 | 0.00 | 93 | 1014.8 |
| 20260508103013 | 1 | 198 | 0.0 | 0.0 | 0.00 | 0.00 | 0.00 | 93 | 1014.9 |
| 20260508102511 | 1 | 198 | 0.0 | 0.0 | 0.00 | 0.00 | 0.00 | 93 | 1014.7 |
| 20260508102008 | 1 | 198 | 0.0 | 0.0 | 0.00 | 0.00 | 0.00 | 92 | 1014.9 |
| 20260508101506 | 1 | 198 | 0.0 | 0.0 | 0.00 | 0.00 | 0.00 | 92 | 1014.8 |
| 20260508101002 | 1 | 198 | 0.0 | 0.0 | 0.00 | 0.00 | 0.00 | 92 | 1014.7 |
| 20260508100501 | 1 | 205 | 0.0 | 0.0 | 0.00 | 0.00 | 0.00 | 91 | 1014.8 |
| 20260508095957 | 1 | 205 | 0.0 | 0.0 | 0.00 | 0.00 | 0.00 | 91 | 1014.7 |
| 20260508095454 | 1 | 205 | 0.0 | 0.0 | 0.00 | 0.00 | 0.00 | 91 | 1014.8 |
| 20260508094951 | 2 | 206 | 0.0 | 0.0 | 0.00 | 0.00 | 0.00 | 91 | 1014.7 |
| 20260508094448 | 2 | 206 | 0.0 | 0.0 | 0.00 | 0.00 | 0.00 | 90 | 1014.9 |
| 20260508093944 | 2 | 201 | 0.0 | 0.0 | 0.00 | 0.00 | 0.00 | 90 | 1014.9 |
| 20260508093442 | 2 | 194 | 0.0 | 0.0 | 0.00 | 0.00 | 0.00 | 90 | 1014.8 |
| 20260508092940 | 2 | 193 | 0.0 | 0.0 | 0.00 | 0.00 | 0.00 | 90 | 1014.9 |
| 20260508092437 | 2 | 193 | 0.0 | 0.0 | 0.00 | 0.00 | 0.00 | 90 | 1015.0 |
| 20260508091936 | 2 | 193 | 0.0 | 0.0 | 0.00 | 0.00 | 0.00 | 89 | 1014.8 |
| 20260508091432 | 2 | 194 | 0.0 | 0.0 | 0.00 | 0.00 | 0.00 | 89 | 1014.7 |
| 20260508090929 | 2 | 194 | 0.0 | 0.0 | 0.00 | 0.00 | 0.00 | 88 | 1015.0 |
| 20260508090428 | 2 | 194 | 0.0 | 0.0 | 0.00 | 0.00 | 0.00 | 88 | 1014.9 |
| 20260508085923 | 2 | 194 | 0.0 | 0.0 | 0.00 | 0.00 | 0.00 | 88 | 1015.0 |
| 20260508085420 | 2 | 194 | 0.0 | 0.0 | 0.00 | 0.00 | 0.00 | 87 | 1015.0 |
| 20260508084917 | 2 | 194 | 0.0 | 0.0 | 0.00 | 0.00 | 0.00 | 87 | 1014.9 |
| 20260508084414 | 2 | 194 | 0.0 | 0.0 | 0.00 | 0.00 | 0.00 | 87 | 1015.0 |
| 20260508083912 | 3 | 193 | 0.0 | 0.0 | 0.00 | 0.00 | 0.00 | 86 | 1015.1 |
| 20260508083409 | 3 | 193 | 0.0 | 0.0 | 0.00 | 0.00 | 0.00 | 86 | 1015.0 |
| 20260508082908 | 3 | 193 | 0.0 | 0.0 | 0.00 | 0.00 | 0.00 | 85 | 1015.2 |
| 20260508082406 | 3 | 193 | 0.0 | 0.0 | 0.00 | 0.00 | 0.00 | 84 | 1015.0 |
| 20260508081903 | 3 | 193 | 0.0 | 0.0 | 0.00 | 0.00 | 0.00 | 84 | 1015.0 |
| 20260508081400 | 3 | 193 | 0.0 | 0.0 | 0.00 | 0.00 | 0.00 | 83 | 1015.1 |
| 20260508080857 | 3 | 193 | 0.0 | 0.0 | 0.00 | 0.00 | 0.00 | 82 | 1015.1 |
| 20260508080355 | 3 | 193 | 0.0 | 0.0 | 0.00 | 0.00 | 0.00 | 82 | 1015.0 |
| 20260508075851 | 4 | 193 | 0.0 | 0.0 | 0.00 | 0.00 | 0.00 | 81 | 1015.2 |
| 20260508075348 | 4 | 193 | 0.0 | 0.0 | 0.00 | 0.00 | 0.00 | 80 | 1015.1 |
| 20260508074846 | 4 | 193 | 0.0 | 0.0 | 0.00 | 0.00 | 0.00 | 80 | 1015.0 |
| 20260508074343 | 4 | 203 | 0.0 | 0.0 | 0.00 | 0.00 | 0.00 | 78 | 1015.0 |
| 20260508073840 | 5 | 204 | 0.0 | 0.0 | 0.00 | 0.00 | 0.00 | 78 | 1015.3 |
| 20260508073338 | 5 | 204 | 0.0 | 0.0 | 0.00 | 0.00 | 0.00 | 77 | 1015.0 |
| 20260508072834 | 5 | 207 | 0.0 | 0.0 | 0.00 | 0.00 | 0.00 | 76 | 1015.0 |
| 20260508072330 | 5 | 197 | 0.0 | 0.0 | 0.00 | 0.00 | 0.00 | 75 | 1014.9 |
| 20260508071828 | 5 | 197 | 0.0 | 0.0 | 0.00 | 0.00 | 0.00 | 75 | 1014.8 |
| 20260508071326 | 5 | 232 | 0.0 | 3.2 | 0.00 | 0.00 | 0.00 | 74 | 1014.8 |
| 20260508070824 | 5 | 195 | 0.0 | 0.0 | 0.00 | 0.00 | 0.00 | 73 | 1014.9 |
| 20260508070322 | 6 | 203 | 0.0 | 0.0 | 0.00 | 0.00 | 0.00 | 73 | 1014.9 |
| 20260508065819 | 6 | 218 | 0.0 | 0.0 | 0.00 | 0.00 | 0.00 | 72 | 1014.9 |
| 20260508065317 | 6 | 190 | 0.0 | 0.0 | 0.00 | 0.00 | 0.00 | 71 | 1014.7 |
| 20260508064814 | 6 | 183 | 3.2 | 4.8 | 0.00 | 0.00 | 0.00 | 71 | 1015.0 |
| 20260508064312 | 6 | 188 | 0.0 | 0.0 | 0.00 | 0.00 | 0.00 | 71 | 1014.9 |
| 20260508063809 | 6 | 190 | 0.0 | 3.2 | 0.00 | 0.00 | 0.00 | 70 | 1015.0 |
| 20260508063307 | 6 | 191 | 0.0 | 0.0 | 0.00 | 0.00 | 0.00 | 71 | 1015.0 |
| 20260508062804 | 6 | 194 | 0.0 | 0.0 | 0.00 | 0.00 | 0.00 | 70 | 1015.1 |
| 20260508062305 | 6 | 195 | 0.0 | 0.0 | 0.00 | 0.00 | 0.00 | 72 | 1015.2 |
| 20260508061758 | 6 | 197 | 0.0 | 0.0 | 0.00 | 0.00 | 0.00 | 71 | 1015.1 |
| 20260508061255 | 6 | 183 | 3.2 | 4.8 | 0.00 | 0.00 | 0.00 | 71 | 1015.2 |
| 20260508060752 | 6 | 200 | 0.0 | 0.0 | 0.00 | 0.00 | 0.00 | 71 | 1015.3 |
| 20260508060250 | 6 | 226 | 0.0 | 0.0 | 0.00 | 0.00 | 0.00 | 71 | 1015.5 |
| 20260508055745 | 6 | 194 | 0.0 | 0.0 | 0.00 | 0.00 | 0.00 | 69 | 1015.5 |
| 20260508055243 | 6 | 181 | 0.0 | 0.0 | 0.00 | 0.00 | 0.00 | 68 | 1015.5 |
| 20260508054739 | 6 | 193 | 0.0 | 0.0 | 0.00 | 0.00 | 0.00 | 70 | 1015.7 |
| 20260508054237 | 6 | 204 | 0.0 | 0.0 | 0.00 | 0.00 | 0.00 | 70 | 1015.7 |
| 20260508053734 | 6 | 194 | 0.0 | 0.0 | 0.00 | 0.00 | 0.00 | 68 | 1015.7 |
| 20260508053231 | 6 | 184 | 0.0 | 0.0 | 0.00 | 0.00 | 0.00 | 68 | 1015.3 |
| 20260508052728 | 7 | 180 | 0.0 | 0.0 | 0.00 | 0.00 | 0.00 | 67 | 1015.3 |
| 20260508052225 | 7 | 202 | 0.0 | 0.0 | 0.00 | 0.00 | 0.00 | 67 | 1015.7 |
| 20260508051721 | 7 | 216 | 0.0 | 0.0 | 0.00 | 0.00 | 0.00 | 68 | 1015.8 |
| 20260508051217 | 7 | 214 | 0.0 | 0.0 | 0.00 | 0.00 | 0.00 | 66 | 1015.3 |
| 20260508050713 | 7 | 186 | 0.0 | 0.0 | 0.00 | 0.00 | 0.00 | 64 | 1015.2 |
| 20260508050211 | 7 | 187 | 0.0 | 0.0 | 0.00 | 0.00 | 0.00 | 65 | 1015.2 |
| 20260508045706 | 7 | 186 | 0.0 | 0.0 | 0.00 | 0.00 | 0.00 | 65 | 1015.2 |
| 20260508045204 | 7 | 194 | 0.0 | 0.0 | 0.00 | 0.00 | 0.00 | 63 | 1015.3 |
| 20260508044701 | 7 | 213 | 0.0 | 0.0 | 0.00 | 0.00 | 0.00 | 65 | 1015.7 |
| 20260508044158 | 7 | 224 | 0.0 | 0.0 | 0.00 | 0.00 | 0.00 | 66 | 1015.6 |
| 20260508043654 | 7 | 279 | 0.0 | 0.0 | 0.00 | 0.00 | 0.00 | 65 | 1015.5 |
| 20260508043152 | 7 | 194 | 0.0 | 0.0 | 0.00 | 0.00 | 0.00 | 65 | 1015.2 |
| 20260508042648 | 7 | 181 | 0.0 | 0.0 | 0.00 | 0.00 | 0.00 | 64 | 1015.2 |
| 20260508042146 | 7 | 200 | 0.0 | 0.0 | 0.00 | 0.00 | 0.00 | 64 | 1015.7 |
| 20260508041642 | 7 | 208 | 0.0 | 0.0 | 0.00 | 0.00 | 0.00 | 64 | 1015.8 |
| 20260508041139 | 7 | 205 | 0.0 | 0.0 | 0.00 | 0.00 | 0.00 | 62 | 1015.8 |
| 20260508040635 | 7 | 193 | 0.0 | 0.0 | 0.00 | 0.00 | 0.00 | 62 | 1015.6 |
| 20260508040133 | 7 | 192 | 0.0 | 0.0 | 0.00 | 0.00 | 0.00 | 62 | 1015.5 |
| 20260508035630 | 7 | 193 | 0.0 | 0.0 | 0.00 | 0.00 | 0.00 | 61 | 1015.3 |
| 20260508035127 | 7 | 199 | 0.0 | 0.0 | 0.00 | 0.00 | 0.00 | 61 | 1015.6 |
| 20260508034624 | 7 | 220 | 0.0 | 0.0 | 0.00 | 0.00 | 0.00 | 61 | 1015.3 |
| 20260508034121 | 7 | 208 | 0.0 | 0.0 | 0.00 | 0.00 | 0.00 | 60 | 1015.5 |
| 20260508033618 | 7 | 219 | 0.0 | 0.0 | 0.00 | 0.00 | 0.00 | 60 | 1015.5 |
| 20260508033117 | 7 | 199 | 0.0 | 0.0 | 0.00 | 0.00 | 0.00 | 59 | 1015.3 |
| 20260508032613 | 7 | 199 | 0.0 | 0.0 | 0.00 | 0.00 | 0.00 | 59 | 1015.1 |
| 20260508032110 | 7 | 199 | 0.0 | 0.0 | 0.00 | 0.00 | 0.00 | 58 | 1015.2 |
| 20260508031607 | 7 | 197 | 0.0 | 0.0 | 0.00 | 0.00 | 0.00 | 58 | 1015.3 |
| 20260508031103 | 7 | 195 | 0.0 | 0.0 | 0.00 | 0.00 | 0.00 | 57 | 1015.5 |
| 20260508030600 | 7 | 208 | 0.0 | 0.0 | 0.00 | 0.00 | 0.00 | 57 | 1015.6 |
| 20260508030058 | 7 | 201 | 0.0 | 0.0 | 0.00 | 0.00 | 0.00 | 57 | 1015.5 |
| 20260508025553 | 7 | 199 | 0.0 | 0.0 | 0.00 | 0.00 | 0.00 | 55 | 1015.7 |
| 20260508025051 | 8 | 184 | 0.0 | 0.0 | 0.00 | 0.00 | 0.00 | 55 | 1015.2 |
| 20260508024547 | 8 | 211 | 0.0 | 0.0 | 0.00 | 0.00 | 0.00 | 54 | 1015.7 |
| 20260508024044 | 8 | 208 | 0.0 | 0.0 | 0.00 | 0.00 | 0.00 | 54 | 1015.3 |
| 20260508023540 | 8 | 223 | 0.0 | 0.0 | 0.00 | 0.00 | 0.00 | 54 | 1015.6 |
| 20260508023038 | 8 | 269 | 0.0 | 0.0 | 0.00 | 0.00 | 0.00 | 56 | 1015.5 |